When you browse on this site, cookies collect data to enhance your experience and personalize the content and advertising you see.
Visit our Privacy Policy to learn more. By continuing to use the site, you agree to this use of cookies and data.
  • In Hungary
  • List of Countries
  • For 7 days
  • Water Temperature
  • Weather Map
  • News
  • Weather Widgets
  • user-avatar
    Login

    Hourly Weather Ch'ŏngjin

    Today, 18 November, Monday

    Time Temperature Precipitation Wind Pressure Humidity
    00:00 +7°C° 1.1 mm 1 mps 757 mmHg 96%
    01:00 +8°C° 2.1 mm 1 mps 754 mmHg 96%
    02:00 +8°C° 2.1 mm 1 mps 752 mmHg 96%
    03:00 +8°C° 0 mm 1 mps 751 mmHg 95%
    04:00 +4°C° 1.3 mm 4 mps 751 mmHg 83%
    05:00 +1°C° 1.3 mm 8 mps 751 mmHg 72%
    06:00 -2°C° 1.3 mm 11 mps 751 mmHg 60%
    07:00 -1°C° 0 mm 9 mps 752 mmHg 57%
    08:00 0°C° 0 mm 8 mps 753 mmHg 53%
    09:00 0°C° 0 mm 7 mps 754 mmHg 50%
    10:00 +1°C° 0 mm 6 mps 755 mmHg 44%
    11:00 +1°C° 0 mm 6 mps 756 mmHg 39%
    12:00 +2°C° 0 mm 5 mps 757 mmHg 33%
    13:00 +1°C° 0 mm 5 mps 757 mmHg 34%
    14:00 +1°C° 0 mm 5 mps 757 mmHg 35%
    15:00 +1°C° 0 mm 5 mps 757 mmHg 36%
    16:00 -2°C° 0 mm 6 mps 758 mmHg 40%
    17:00 -3°C° 0 mm 6 mps 758 mmHg 43%
    18:00 -5°C° 0 mm 6 mps 759 mmHg 47%
    19:00 -6°C° 0 mm 6 mps 760 mmHg 46%
    20:00 -6°C° 0 mm 6 mps 760 mmHg 46%
    21:00 -8°C° 0 mm 6 mps 760 mmHg 45%
    22:00 -7°C° 0 mm 5 mps 760 mmHg 44%
    23:00 -7°C° 0 mm 5 mps 760 mmHg 44%

    Tomorrow, 19 November, Tuesday

    Time Temperature Precipitation Wind Pressure Humidity
    00:00 -7°C° 0 mm 5 mps 760 mmHg 43%
    01:00 -7°C° 0 mm 4 mps 760 mmHg 43%
    02:00 -7°C° 0 mm 4 mps 760 mmHg 43%
    03:00 -6°C° 0 mm 3 mps 760 mmHg 42%
    04:00 -7°C° 0 mm 3 mps 760 mmHg 42%
    05:00 -8°C° 0 mm 4 mps 760 mmHg 42%
    06:00 -8°C° 0 mm 4 mps 760 mmHg 42%
    07:00 -8°C° 0 mm 4 mps 760 mmHg 39%
    08:00 -7°C° 0 mm 4 mps 760 mmHg 37%
    09:00 -6°C° 0 mm 3 mps 760 mmHg 34%
    10:00 -5°C° 0 mm 3 mps 760 mmHg 33%
    11:00 -4°C° 0 mm 3 mps 760 mmHg 32%
    12:00 -2°C° 0 mm 3 mps 760 mmHg 30%
    13:00 -2°C° 0 mm 3 mps 760 mmHg 32%
    14:00 -2°C° 0 mm 3 mps 760 mmHg 33%
    15:00 -3°C° 0 mm 4 mps 760 mmHg 34%
    16:00 -4°C° 0 mm 4 mps 761 mmHg 38%
    17:00 -6°C° 0 mm 5 mps 762 mmHg 42%
    18:00 -7°C° 0 mm 5 mps 763 mmHg 46%
    19:00 -8°C° 0 mm 6 mps 763 mmHg 46%
    20:00 -8°C° 0 mm 7 mps 764 mmHg 45%
    21:00 -10°C° 0 mm 8 mps 765 mmHg 45%
    22:00 -9°C° 0 mm 6 mps 766 mmHg 45%
    23:00 -8°C° 0 mm 5 mps 767 mmHg 44%

    Day after tomorrow, 20 November, Wednesday

    Time Temperature Precipitation Wind Pressure Humidity
    00:00 -8°C° 0 mm 4 mps 768 mmHg 44%
    01:00 -8°C° 0 mm 4 mps 768 mmHg 44%
    02:00 -7°C° 0 mm 3 mps 769 mmHg 45%
    03:00 -7°C° 0 mm 3 mps 769 mmHg 46%
    04:00 -7°C° 0 mm 3 mps 769 mmHg 47%
    05:00 -7°C° 0 mm 3 mps 770 mmHg 48%
    06:00 -7°C° 0 mm 3 mps 770 mmHg 49%
    07:00 -5°C° 0 mm 2 mps 770 mmHg 47%
    08:00 -4°C° 0 mm 2 mps 770 mmHg 44%
    09:00 -3°C° 0 mm 2 mps 771 mmHg 42%
    10:00 0°C° 0 mm 1 mps 770 mmHg 38%
    11:00 +2°C° 0 mm 1 mps 770 mmHg 35%
    12:00 +3°C° 0 mm 1 mps 770 mmHg 32%
    13:00 +3°C° 0 mm 1 mps 769 mmHg 34%
    14:00 +4°C° 0 mm 1 mps 769 mmHg 36%
    15:00 +4°C° 0 mm 1 mps 769 mmHg 38%
    16:00 +2°C° 0 mm 1 mps 769 mmHg 43%
    17:00 +1°C° 0 mm 1 mps 770 mmHg 48%
    18:00 0°C° 0 mm 1 mps 770 mmHg 53%
    19:00 0°C° 0 mm 1 mps 770 mmHg 52%
    20:00 0°C° 0 mm 1 mps 771 mmHg 51%
    21:00 0°C° 0 mm 1 mps 771 mmHg 50%
    22:00 -2°C° 0 mm 2 mps 771 mmHg 48%
    23:00 -2°C° 0 mm 2 mps 771 mmHg 46%

    21 November, Thursday

    Time Temperature Precipitation Wind Pressure Humidity
    00:00 -2°C° 0 mm 2 mps 771 mmHg 45%
    01:00 -2°C° 0 mm 2 mps 771 mmHg 46%
    02:00 0°C° 0 mm 1 mps 771 mmHg 48%
    03:00 +1°C° 0 mm 1 mps 771 mmHg 50%
    04:00 +1°C° 0 mm 1 mps 771 mmHg 52%
    05:00 +1°C° 0 mm 1 mps 771 mmHg 54%
    06:00 +1°C° 0 mm 1 mps 771 mmHg 55%
    07:00 +2°C° 0 mm 1 mps 771 mmHg 54%
    08:00 +3°C° 0 mm 1 mps 771 mmHg 52%
    09:00 +4°C° 0 mm 1 mps 771 mmHg 50%
    10:00 +5°C° 0 mm 1 mps 771 mmHg 48%
    11:00 +6°C° 0 mm 1 mps 770 mmHg 46%
    12:00 +7°C° 0 mm 1 mps 770 mmHg 44%
    13:00 +7°C° 0 mm 1 mps 770 mmHg 47%
    14:00 +7°C° 0 mm 1 mps 769 mmHg 50%
    15:00 +7°C° 0 mm 1 mps 769 mmHg 53%
    16:00 +6°C° 0 mm 1 mps 769 mmHg 58%
    17:00 +5°C° 0 mm 1 mps 770 mmHg 63%
    18:00 +4°C° 0 mm 1 mps 770 mmHg 68%
    19:00 +4°C° 0 mm 1 mps 770 mmHg 67%
    20:00 +3°C° 0 mm 2 mps 770 mmHg 67%
    21:00 +3°C° 0 mm 2 mps 770 mmHg 67%
    22:00 +3°C° 0 mm 2 mps 770 mmHg 67%
    23:00 +3°C° 0 mm 2 mps 770 mmHg 67%

    22 November, Friday

    Time Temperature Precipitation Wind Pressure Humidity
    00:00 +4°C° 0 mm 1 mps 770 mmHg 66%
    01:00 +4°C° 0 mm 1 mps 770 mmHg 68%
    02:00 +4°C° 0 mm 1 mps 770 mmHg 69%
    03:00 +4°C° 0 mm 1 mps 770 mmHg 70%
    04:00 +5°C° 0 mm 1 mps 770 mmHg 70%
    05:00 +5°C° 0 mm 1 mps 770 mmHg 70%
    06:00 +5°C° 0 mm 1 mps 770 mmHg 70%
    07:00 +6°C° 0 mm 1 mps 770 mmHg 67%
    08:00 +6°C° 0 mm 1 mps 770 mmHg 64%
    09:00 +7°C° 0 mm 1 mps 770 mmHg 61%
    10:00 +8°C° 0 mm 1 mps 770 mmHg 59%
    11:00 +9°C° 0 mm 1 mps 769 mmHg 57%
    12:00 +10°C° 0 mm 1 mps 768 mmHg 55%
    13:00 +10°C° 0 mm 1 mps 768 mmHg 58%
    14:00 +10°C° 0 mm 1 mps 767 mmHg 60%
    15:00 +10°C° 0 mm 1 mps 767 mmHg 63%
    16:00 +9°C° 0 mm 1 mps 767 mmHg 67%
    17:00 +8°C° 0 mm 1 mps 767 mmHg 71%
    18:00 +6°C° 0 mm 2 mps 767 mmHg 75%
    19:00 +6°C° 0 mm 2 mps 767 mmHg 73%
    20:00 +6°C° 0 mm 2 mps 767 mmHg 70%
    21:00 +6°C° 0 mm 2 mps 767 mmHg 68%
    22:00 +7°C° 0 mm 1 mps 767 mmHg 67%
    23:00 +7°C° 0 mm 1 mps 766 mmHg 67%

    23 November, Saturday

    Time Temperature Precipitation Wind Pressure Humidity
    00:00 +7°C° 0 mm 1 mps 766 mmHg 66%
    01:00 +6°C° 0 mm 2 mps 765 mmHg 66%
    02:00 +6°C° 0 mm 2 mps 764 mmHg 65%
    03:00 +5°C° 0 mm 3 mps 763 mmHg 65%
    04:00 +5°C° 0 mm 3 mps 762 mmHg 64%
    05:00 +7°C° 0 mm 3 mps 762 mmHg 62%
    06:00 +7°C° 0 mm 3 mps 761 mmHg 61%
    07:00 +8°C° 0 mm 3 mps 761 mmHg 60%
    08:00 +8°C° 0 mm 3 mps 761 mmHg 60%
    09:00 +9°C° 0 mm 3 mps 760 mmHg 59%
    10:00 +10°C° 0 mm 2 mps 760 mmHg 59%
    11:00 +12°C° 0 mm 2 mps 760 mmHg 60%
    12:00 +13°C° 0 mm 2 mps 760 mmHg 60%
    13:00 +13°C° 0 mm 2 mps 760 mmHg 62%
    14:00 +13°C° 0 mm 2 mps 760 mmHg 63%
    15:00 +13°C° 0 mm 2 mps 761 mmHg 64%
    16:00 +11°C° 0 mm 3 mps 762 mmHg 66%
    17:00 +9°C° 0 mm 3 mps 763 mmHg 69%
    18:00 +7°C° 0 mm 4 mps 764 mmHg 71%
    19:00 +6°C° 0 mm 4 mps 765 mmHg 70%
    20:00 +5°C° 0 mm 4 mps 766 mmHg 68%
    21:00 +3°C° 0 mm 5 mps 767 mmHg 67%
    22:00 +2°C° 0 mm 5 mps 767 mmHg 66%
    23:00 +3°C° 0 mm 4 mps 768 mmHg 66%
    Show more